Location: *
(31.2983°S, 151.4094°E)
Time: 01:52:11
(UTC+00:00)

USA 238 - Pass Details

Date: 25 August 2019
Orbit: 1036 x 1177 km, 63.4° (Epoch: 14 September)

Event Time Altitude Azimuth Distance (km) Brightness Sun altitude
Exits shadow 18:58:21 - 212° (SSW) 3,447 6.0 -17.9°
Reaches altitude 10° 18:59:49 10° 213° (SSW) 2,920 5.7 -17.6°
Maximum altitude 19:06:41 75° 296° (WNW) 1,089 3.6 -16.1°
Drops below altitude 10° 19:13:20 10° 21° (NNE) 2,833 6.2 -14.7°
Sets 19:15:55 0° 22° (NNE) 3,776 6.9 -14.1°
